Weather History for Monarch Pass, CO

Change the Weather History Date:

Thursday, August 1, 2013

  Actual Average (KGUC) Record (KGUC)
Temperature  
Mean Temperature 48 °F -  
Max Temperature 55 °F 76 °F 86 °F (2008)
Min Temperature 42 °F 45 °F 39 °F (1996)
Degree Days  
Heating Degree Days 16    
Moisture  
Dew Point 38 °F    
Average Humidity 66    
Maximum Humidity 100    
Minimum Humidity 41    
Precipitation  
Precipitation 0.00 in - - ()
Sea Level Pressure  
Sea Level Pressure 30.79 in    
Wind  
Wind Speed 12 mph (WSW)    
Max Wind Speed 25 mph    
Max Gust Speed 32 mph    
Averages and records for this station are not official NWS values.
T = Trace of Precipitation, MM = Missing Value Source: NWS Daily Summary

Daily Weather History Graph

Daily Weather History Graph

Search for Another Location

Airport:

Trip Planner

Search our weather history database for the weather conditions in past years. The results will help you decide how hot, cold, wet, or windy it might be!

Date:

Astronomy

Aug. 01, 2013 Rise Set
Actual Time 6:07 AM MDT 8:15 PM MDT
Civil Twilight 5:37 AM MDT 8:44 PM MDT
Nautical Twilight 5:01 AM MDT 9:20 PM MDT
Astronomical Twilight 4:22 AM MDT 9:59 PM MDT
Moon 1:46 AM MDT (8/1) 4:25 PM MDT (8/1)
Length of Visible Light 15h 06m
Length of Day
14h 07m
Waning Crescent, 23% of the Moon is Illuminated
Aug 1
Waning Crescent
Aug 6
New
Aug 14
First Quarter
Aug 20
Full
Aug 28
Last Quarter

Hourly Weather History & Observations

Time (MDT) Temp. Windchill Dew Point Humidity Pressure Visibility Wind Dir Wind Speed Gust Speed Precip Events Conditions
12:15 AM 53.6 °F - 32.0 °F 44% 30.84 in - West 9.2 mph - N/A   Clear
12:35 AM 53.6 °F - 30.2 °F 41% 30.85 in - West 8.1 mph - N/A   Clear
12:55 AM 51.8 °F - 30.2 °F 44% 30.84 in - West 11.5 mph - N/A   Clear
1:15 AM 51.8 °F - 30.2 °F 44% 30.83 in - West 12.7 mph - N/A   Clear
1:35 AM 51.8 °F - 30.2 °F 44% 30.83 in - West 13.8 mph - N/A   Clear
1:55 AM 51.8 °F - 30.2 °F 44% 30.83 in - WNW 8.1 mph - N/A   Clear
2:15 AM 51.8 °F - 30.2 °F 44% 30.83 in - West 6.9 mph - N/A   Clear
2:35 AM 51.8 °F - 30.2 °F 44% 30.83 in - West 6.9 mph - N/A   Clear
2:55 AM 51.8 °F - 30.2 °F 44% 30.82 in - West 11.5 mph - N/A   Clear
3:15 AM 51.8 °F - 30.2 °F 44% 30.81 in - WSW 9.2 mph - N/A   Scattered Clouds
3:35 AM 51.8 °F - 30.2 °F 44% 30.81 in - West 9.2 mph - N/A   Overcast
3:55 AM 51.8 °F - 30.2 °F 44% 30.81 in - WNW 5.8 mph - N/A   Overcast
4:15 AM 51.8 °F - 30.2 °F 44% 30.81 in - SSW 6.9 mph - N/A   Overcast
4:35 AM 50.0 °F - 32.0 °F 50% 30.81 in - SSW 9.2 mph - N/A   Overcast
4:55 AM 51.8 °F - 30.2 °F 44% 30.81 in - SSW 9.2 mph - N/A   Overcast
5:15 AM 50.0 °F - 32.0 °F 50% 30.81 in - SW 6.9 mph - N/A   Overcast
5:35 AM 50.0 °F - 32.0 °F 50% 30.81 in - SSW 8.1 mph - N/A   Overcast
5:55 AM 50.0 °F - 32.0 °F 50% 30.81 in - South 8.1 mph - N/A   Overcast
6:15 AM 51.8 °F - 32.0 °F 47% 30.81 in - SSW 5.8 mph - N/A   Overcast
6:35 AM 50.0 °F - 33.8 °F 54% 30.81 in - SW 8.1 mph - N/A   Overcast
6:55 AM 50.0 °F - 33.8 °F 54% 30.81 in - South 6.9 mph - N/A   Overcast
7:15 AM 50.0 °F - 33.8 °F 54% 30.81 in - South 8.1 mph - N/A   Overcast
7:35 AM 51.8 °F - 33.8 °F 50% 30.81 in - South 8.1 mph - N/A   Overcast
7:55 AM 53.6 °F - 33.8 °F 47% 30.82 in - South 8.1 mph - N/A   Overcast
8:15 AM 53.6 °F - 35.6 °F 51% 30.83 in - SW 4.6 mph - N/A   Overcast
8:35 AM 53.6 °F - 35.6 °F 51% 30.83 in - WSW 3.5 mph - N/A   Overcast
8:55 AM 53.6 °F - 35.6 °F 51% 30.83 in - SSW 4.6 mph - N/A   Overcast
9:15 AM 53.6 °F - 35.6 °F 51% 30.83 in - SW 12.7 mph - N/A   Overcast
9:35 AM 51.8 °F - 37.4 °F 58% 30.83 in - WSW 11.5 mph - N/A   Overcast
9:55 AM 53.6 °F - 41.0 °F 62% 30.83 in - SW 17.3 mph - N/A   Mostly Cloudy
10:15 AM 53.6 °F - 41.0 °F 62% 30.83 in - SW 20.7 mph - N/A   Mostly Cloudy
10:35 AM 51.8 °F - 41.0 °F 67% 30.83 in - SW 18.4 mph - N/A   Overcast
10:55 AM 53.6 °F - 41.0 °F 62% 30.83 in - SW 17.3 mph 26.5 mph N/A   Overcast
11:15 AM 51.8 °F - 37.4 °F 58% 30.83 in - West 24.2 mph 28.8 mph N/A   Mostly Cloudy
11:35 AM 53.6 °F - 37.4 °F 54% 30.82 in - West 23.0 mph 28.8 mph N/A   Mostly Cloudy
11:55 AM 51.8 °F - 39.2 °F 62% 30.82 in - West 20.7 mph 26.5 mph N/A   Overcast
12:15 PM 53.6 °F - 39.2 °F 58% 30.82 in - West 12.7 mph 19.6 mph N/A   Overcast
12:35 PM 51.8 °F - 39.2 °F 62% 30.81 in - WNW 9.2 mph - N/A   Overcast
12:55 PM 55.4 °F - 41.0 °F 58% 30.81 in - WSW 18.4 mph 23.0 mph N/A   Overcast
1:15 PM 51.8 °F - 39.2 °F 62% 30.81 in - West 20.7 mph 28.8 mph N/A   Overcast
1:35 PM 50.0 °F - 41.0 °F 71% 30.81 in - West 25.3 mph 32.2 mph N/A   Overcast
1:55 PM 46.4 °F 38.7 °F 42.8 °F 87% 30.81 in - West 20.7 mph - N/A   Overcast
2:15 PM 48.2 °F - 42.8 °F 82% 30.81 in - West 21.9 mph 28.8 mph N/A   Overcast
2:35 PM 46.4 °F 39.5 °F 42.8 °F 87% 30.81 in - WSW 17.3 mph 26.5 mph N/A   Overcast
2:55 PM 44.6 °F 38.1 °F 42.8 °F 93% 30.81 in - West 13.8 mph 27.6 mph N/A   Overcast
3:15 PM 46.4 °F 42.4 °F 44.6 °F 93% 30.79 in - WNW 8.1 mph - N/A   Unknown
3:35 PM 46.4 °F 40.1 °F 44.6 °F 93% 30.79 in - West 15.0 mph 18.4 mph N/A   Unknown
3:55 PM 50.0 °F - 44.6 °F 82% 30.78 in - West 17.3 mph - N/A   Mostly Cloudy
4:15 PM 48.2 °F - 42.8 °F 82% 30.77 in - WSW 17.3 mph - N/A   Overcast
4:35 PM 50.0 °F - 42.8 °F 76% 30.76 in - SW 15.0 mph 20.7 mph N/A   Mostly Cloudy
4:55 PM 51.8 °F - 42.8 °F 71% 30.75 in - WSW 11.5 mph 18.4 mph N/A   Scattered Clouds
5:15 PM 53.6 °F - 42.8 °F 67% 30.74 in - WSW 17.3 mph 23.0 mph N/A   Clear
5:35 PM 51.8 °F - 42.8 °F 71% 30.74 in - West 21.9 mph - N/A   Clear
5:55 PM 51.8 °F - 42.8 °F 71% 30.73 in - West 15.0 mph 21.9 mph N/A   Scattered Clouds
6:15 PM 50.0 °F - 42.8 °F 76% 30.73 in - WSW 16.1 mph - N/A   Mostly Cloudy
6:35 PM 50.0 °F - 42.8 °F 76% 30.73 in - WSW 16.1 mph - N/A   Overcast
6:55 PM 50.0 °F - 41.0 °F 71% 30.73 in - West 15.0 mph 23.0 mph N/A Thunderstorm Thunderstorm
7:15 PM 48.2 °F - 42.8 °F 82% 30.74 in - WSW 13.8 mph - N/A Thunderstorm Thunderstorm
7:35 PM 48.2 °F - 42.8 °F 82% 30.74 in - WSW 18.4 mph - N/A Thunderstorm Thunderstorm
7:55 PM 46.4 °F 39.0 °F 42.8 °F 87% 30.72 in - West 19.6 mph - N/A   Unknown
8:15 PM 46.4 °F 40.4 °F 42.8 °F 87% 30.73 in - WSW 13.8 mph - N/A   Unknown
8:35 PM 46.4 °F 40.4 °F 42.8 °F 87% 30.74 in - West 13.8 mph 20.7 mph N/A   Overcast
8:55 PM 44.6 °F 37.8 °F 44.6 °F 100% 30.74 in - WSW 15.0 mph - N/A   Overcast
9:15 PM 44.6 °F 37.2 °F 42.8 °F 93% 30.74 in - WSW 17.3 mph - N/A   Overcast
9:35 PM 44.6 °F 37.4 °F 42.8 °F 93% 30.74 in - WSW 16.1 mph - N/A Thunderstorm Thunderstorm
9:55 PM 44.6 °F 37.4 °F 42.8 °F 93% 30.74 in - West 16.1 mph - N/A Thunderstorm Thunderstorm
10:15 PM 44.6 °F 37.2 °F 42.8 °F 93% 30.74 in - WSW 17.3 mph - N/A Thunderstorm Thunderstorm
10:35 PM 44.6 °F 37.2 °F 42.8 °F 93% 30.72 in - WSW 17.3 mph - N/A   Overcast
10:55 PM 44.6 °F 36.9 °F 42.8 °F 93% 30.71 in - WSW 18.4 mph - N/A   Overcast
11:15 PM 42.8 °F 34.3 °F 42.8 °F 100% 30.70 in - WSW 19.6 mph - N/A   Overcast
11:35 PM 42.8 °F 33.3 °F 42.8 °F 100% 30.69 in - SW 24.2 mph - N/A   Overcast
11:55 PM 42.8 °F 33.3 °F 42.8 °F 100% 30.69 in - WSW 24.2 mph 28.8 mph N/A   Overcast